User: anonymous   Login
Location: Ostrava
(49.8330°N, 18.2830°E)
Time: 16:46:20
(UTC+02:00)
Language:

Explorer 7 - Orbit

View from above orbital plane
View from above orbital plane
View from above satellite
View from above satellite

Ground track
Ground track

The orbit data is extracted from the following two-line orbital elements,

1    22U 59009A   18172.92634273 -.00000067 +00000-0 +18543-4 0  9991
2    22 050.2845 269.4910 0140850 004.0854 356.1208 14.94567971361693
Epoch (UTC): 21 June 2018 22:13:56
Eccentricity: 0.0140850
inclination: 50.2845°
perigee height: 485 km
apogee height: 682 km
right ascension of ascending node: 269.4910°
argument of perigee: 4.0854°
revolutions per day: 14.94567971
mean anomaly at epoch: 356.1208°
orbit number at epoch: 36169

The dashed part of the orbit path shows where the satellite is in the earth's shadow,  

DLR